32.3°F
Current conditions from King Hill
Updated every 5 minutes
 
  Friday April 18, 2014

Station Historical Data
Daily Summary for October 2, 2011 Units:  English    Metric   Both
« Previous Day
Next Day »
Daily Weekly Monthly Yearly Custom
  High: Low: Average:
Temperature: 52.5 °F 42.2 °F 47.5 °F
Dew Point: 51.4 °F 40.9 °F 46.4 °F
Humidity: 96% 95% 96%
Wind Speed: 5.0mph 1.0mph 1.5mph
Wind Gust: 10.0mph - -
Wind- - SSE
Pressure: 29.92 in 29.87 in -
Precipitation: 0.27 in    
Historical Graphs
 
 
Tabular Data for October 2, 2011
Time Temperature Dew Point Pressure Wind Wind Speed Wind Gust Humidity Daily Rainfall
00:00 42.2 °F 40.9 °F 29.88 in NNE 2.0 mph 10.0 mph 95% 0.61 in
00:05 42.2 °F 40.9 °F 29.88 in NE 1.0 mph 8.0 mph 95% 0.00 in
00:10 42.2 °F 40.9 °F 29.88 in NE 1.0 mph 7.0 mph 95% 0.00 in
00:15 42.2 °F 40.9 °F 29.89 in Calm   7.0 mph 95% 0.00 in
00:20 42.3 °F 41.0 °F 29.89 in Calm   6.0 mph 95% 0.00 in
00:25 42.3 °F 41.0 °F 29.89 in Calm   5.0 mph 95% 0.00 in
00:30 42.4 °F 41.1 °F 29.89 in Calm   1.0 mph 95% 0.00 in
00:35 42.4 °F 41.1 °F 29.89 in Calm   1.0 mph 95% 0.00 in
00:40 42.5 °F 41.2 °F 29.89 in Calm   1.0 mph 95% 0.00 in
00:45 42.5 °F 41.2 °F 29.89 in NNE 1.0 mph 4.0 mph 95% 0.00 in
00:50 42.5 °F 41.2 °F 29.89 in NNE 2.0 mph 6.0 mph 95% 0.00 in
00:55 42.5 °F 41.2 °F 29.89 in NNE 1.0 mph 7.0 mph 95% 0.00 in
01:00 42.5 °F 41.2 °F 29.88 in Calm   7.0 mph 95% 0.00 in
01:05 42.5 °F 41.2 °F 29.89 in Calm   7.0 mph 95% 0.00 in
01:15 42.5 °F 41.2 °F 29.88 in NE 2.0 mph 10.0 mph 95% 0.00 in
01:20 42.5 °F 41.2 °F 29.88 in NNE 2.0 mph 10.0 mph 95% 0.00 in
01:25 42.5 °F 41.2 °F 29.88 in NNE 5.0 mph 9.0 mph 95% 0.00 in
01:30 42.4 °F 41.1 °F 29.89 in Calm   9.0 mph 95% 0.00 in
01:35 42.5 °F 41.2 °F 29.89 in Calm   4.0 mph 95% 0.00 in
01:40 42.5 °F 41.2 °F 29.89 in NNE 1.0 mph 4.0 mph 95% 0.00 in
01:45 42.6 °F 41.3 °F 29.89 in Calm   4.0 mph 95% 0.00 in
01:50 42.6 °F 41.3 °F 29.89 in Calm   4.0 mph 95% 0.00 in
01:55 42.6 °F 41.3 °F 29.88 in Calm   4.0 mph 95% 0.00 in
02:00 42.5 °F 41.2 °F 29.89 in Calm   4.0 mph 95% 0.00 in
02:05 42.6 °F 41.3 °F 29.89 in Calm   4.0 mph 95% 0.00 in
02:10 42.6 °F 41.3 °F 29.89 in Calm   4.0 mph 95% 0.00 in
02:15 42.7 °F 41.4 °F 29.89 in Calm   3.0 mph 95% 0.00 in
02:20 42.7 °F 41.4 °F 29.89 in Calm   4.0 mph 95% 0.00 in
02:25 42.7 °F 41.4 °F 29.89 in Calm   4.0 mph 95% 0.00 in
02:30 42.7 °F 41.4 °F 29.89 in Calm   3.0 mph 95% 0.00 in
02:35 42.7 °F 41.4 °F 29.88 in NNE 1.0 mph 5.0 mph 95% 0.00 in
02:40 42.8 °F 41.5 °F 29.88 in Calm   5.0 mph 95% 0.00 in
02:45 42.8 °F 41.5 °F 29.88 in Calm   3.0 mph 95% 0.00 in
02:50 42.9 °F 41.6 °F 29.88 in Calm   1.0 mph 95% 0.00 in
02:55 42.8 °F 41.5 °F 29.88 in Calm   2.0 mph 95% 0.00 in
03:00 42.9 °F 41.6 °F 29.88 in Calm   3.0 mph 95% 0.00 in
03:05 42.9 °F 41.6 °F 29.88 in NE 1.0 mph 3.0 mph 95% 0.00 in
03:10 42.9 °F 41.6 °F 29.89 in Calm   3.0 mph 95% 0.00 in
03:15 42.9 °F 41.6 °F 29.88 in Calm   3.0 mph 95% 0.00 in
03:20 42.9 °F 41.8 °F 29.88 in North 1.0 mph 7.0 mph 96% 0.00 in
03:25 42.9 °F 41.6 °F 29.88 in Calm   7.0 mph 95% 0.00 in
03:30 42.9 °F 41.6 °F 29.88 in NNE 1.0 mph 5.0 mph 95% 0.00 in
03:35 42.9 °F 41.6 °F 29.88 in NNE 1.0 mph 5.0 mph 95% 0.00 in
03:40 42.9 °F 41.6 °F 29.88 in NNE 1.0 mph 4.0 mph 95% 0.00 in
03:45 42.9 °F 41.8 °F 29.88 in Calm   3.0 mph 96% 0.00 in
03:50 43.1 °F 42.0 °F 29.89 in Calm   1.0 mph 96% 0.00 in
03:55 43.1 °F 42.0 °F 29.88 in Calm   2.0 mph 96% 0.00 in
04:00 43.1 °F 42.0 °F 29.88 in NNE 1.0 mph 4.0 mph 96% 0.00 in
04:05 43.1 °F 42.0 °F 29.88 in Calm   4.0 mph 96% 0.00 in
04:10 43.1 °F 42.0 °F 29.88 in NNE 1.0 mph 4.0 mph 96% 0.00 in
04:15 43.2 °F 42.1 °F 29.88 in Calm   4.0 mph 96% 0.00 in
04:20 43.2 °F 42.1 °F 29.89 in Calm   4.0 mph 96% 0.00 in
04:25 43.2 °F 42.1 °F 29.89 in Calm   3.0 mph 96% 0.00 in
04:30 43.2 °F 42.1 °F 29.88 in Calm   3.0 mph 96% 0.00 in
04:35 43.2 °F 42.1 °F 29.89 in NNE 1.0 mph 5.0 mph 96% 0.00 in
04:40 43.2 °F 42.1 °F 29.89 in NNE 1.0 mph 5.0 mph 96% 0.00 in
04:45 43.3 °F 42.2 °F 29.88 in NNE 1.0 mph 5.0 mph 96% 0.00 in
04:50 43.3 °F 42.0 °F 29.88 in NNE 3.0 mph 7.0 mph 95% 0.00 in
04:55 43.3 °F 42.0 °F 29.88 in Calm   7.0 mph 95% 0.00 in
05:00 43.4 °F 42.1 °F 29.88 in NNE 1.0 mph 5.0 mph 95% 0.00 in
05:05 43.4 °F 42.1 °F 29.89 in Calm   6.0 mph 95% 0.00 in
05:10 43.4 °F 42.3 °F 29.89 in Calm   6.0 mph 96% 0.00 in
05:15 43.4 °F 42.1 °F 29.89 in Calm   1.0 mph 95% 0.00 in
05:20 43.5 °F 42.4 °F 29.89 in North 1.0 mph 5.0 mph 96% 0.00 in
05:25 43.5 °F 42.2 °F 29.89 in Calm   5.0 mph 95% 0.00 in
05:30 43.6 °F 42.5 °F 29.89 in NE 1.0 mph 4.0 mph 96% 0.00 in
05:35 43.6 °F 42.5 °F 29.89 in Calm   4.0 mph 96% 0.00 in
05:40 43.6 °F 42.5 °F 29.89 in Calm   3.0 mph 96% 0.00 in
05:45 43.6 °F 42.5 °F 29.89 in Calm   1.0 mph 96% 0.00 in
05:50 43.7 °F 42.6 °F 29.89 in Calm   1.0 mph 96% 0.00 in
05:54 43.7 °F 42.6 °F 29.89 in Calm   3.0 mph 96% 0.00 in
06:00 43.7 °F 42.6 °F 29.89 in Calm   3.0 mph 96% 0.00 in
06:05 43.7 °F 42.6 °F 29.90 in Calm   3.0 mph 96% 0.00 in
06:10 43.8 °F 42.7 °F 29.90 in Calm   1.0 mph 96% 0.00 in
06:14 43.9 °F 42.8 °F 29.90 in Calm   3.0 mph 96% 0.00 in
06:20 44.0 °F 42.9 °F 29.90 in Calm   3.0 mph 96% 0.00 in
06:25 44.0 °F 42.9 °F 29.90 in Calm   4.0 mph 96% 0.00 in
06:29 44.0 °F 42.9 °F 29.90 in Calm   4.0 mph 96% 0.00 in
06:35 43.9 °F 42.8 °F 29.91 in Calm   3.0 mph 96% 0.00 in
06:40 43.9 °F 42.8 °F 29.90 in NNE 1.0 mph 5.0 mph 96% 0.00 in
06:45 44.0 °F 42.9 °F 29.90 in Calm   5.0 mph 96% 0.00 in
06:49 44.0 °F 42.9 °F 29.90 in Calm   2.0 mph 96% 0.00 in
06:55 44.2 °F 43.1 °F 29.91 in NNE 1.0 mph 5.0 mph 96% 0.00 in
07:00 44.2 °F 43.1 °F 29.91 in Calm   5.0 mph 96% 0.00 in
07:05 44.3 °F 43.2 °F 29.91 in Calm   1.0 mph 96% 0.00 in
07:09 44.4 °F 43.3 °F 29.90 in Calm   4.0 mph 96% 0.00 in
07:15 44.6 °F 43.5 °F 29.90 in Calm   4.0 mph 96% 0.00 in
07:20 44.7 °F 43.6 °F 29.90 in Calm   4.0 mph 96% 0.00 in
07:25 44.8 °F 43.7 °F 29.91 in Calm   3.0 mph 96% 0.00 in
07:30 44.9 °F 43.8 °F 29.91 in Calm   2.0 mph 96% 0.00 in
07:35 45.0 °F 43.9 °F 29.91 in Calm   2.0 mph 96% 0.00 in
07:40 45.0 °F 43.9 °F 29.92 in Calm   2.0 mph 96% 0.00 in
07:44 45.0 °F 43.9 °F 29.92 in Calm   2.0 mph 96% 0.00 in
07:50 45.2 °F 44.1 °F 29.91 in Calm     96% 0.00 in
07:55 45.4 °F 44.3 °F 29.91 in North 1.0 mph 4.0 mph 96% 0.00 in
08:00 45.5 °F 44.4 °F 29.92 in Calm   4.0 mph 96% 0.00 in
08:05 45.5 °F 44.4 °F 29.92 in Calm   4.0 mph 96% 0.00 in
08:09 45.6 °F 44.5 °F 29.92 in Calm   3.0 mph 96% 0.00 in
08:15 45.7 °F 44.6 °F 29.92 in Calm   4.0 mph 96% 0.00 in
08:20 45.8 °F 44.7 °F 29.92 in NNE 1.0 mph 5.0 mph 96% 0.00 in
08:25 45.7 °F 44.6 °F 29.92 in Calm   5.0 mph 96% 0.00 in
08:29 45.6 °F 44.5 °F 29.91 in Calm   3.0 mph 96% 0.00 in
08:35 45.7 °F 44.6 °F 29.92 in Calm   2.0 mph 96% 0.00 in
08:40 45.8 °F 44.7 °F 29.91 in Calm   1.0 mph 96% 0.00 in
08:45 46.0 °F 44.9 °F 29.91 in Calm   1.0 mph 96% 0.00 in
08:50 46.1 °F 45.0 °F 29.90 in Calm   3.0 mph 96% 0.00 in
08:55 46.2 °F 45.1 °F 29.91 in NNE 1.0 mph 3.0 mph 96% 0.00 in
09:00 46.3 °F 45.2 °F 29.90 in NNE 1.0 mph 3.0 mph 96% 0.00 in
09:05 46.4 °F 45.3 °F 29.91 in Calm   4.0 mph 96% 0.00 in
09:10 46.6 °F 45.5 °F 29.90 in Calm   4.0 mph 96% 0.00 in
09:14 46.8 °F 45.7 °F 29.90 in Calm   7.0 mph 96% 0.00 in
09:20 47.2 °F 46.1 °F 29.91 in Calm   7.0 mph 96% 0.00 in
09:25 47.6 °F 46.5 °F 29.91 in Calm   4.0 mph 96% 0.00 in
09:29 47.8 °F 46.7 °F 29.91 in Calm   3.0 mph 96% 0.00 in
09:35 48.0 °F 46.9 °F 29.91 in Calm   5.0 mph 96% 0.00 in
09:40 48.1 °F 47.0 °F 29.92 in Calm   5.0 mph 96% 0.00 in
09:45 48.2 °F 47.1 °F 29.91 in Calm   3.0 mph 96% 0.00 in
09:49 48.1 °F 47.0 °F 29.91 in Calm   4.0 mph 96% 0.00 in
09:55 48.0 °F 46.9 °F 29.91 in Calm   4.0 mph 96% 0.00 in
10:00 47.9 °F 46.8 °F 29.92 in Calm   4.0 mph 96% 0.00 in
10:05 47.9 °F 46.8 °F 29.92 in Calm   4.0 mph 96% 0.00 in
10:09 48.0 °F 46.9 °F 29.92 in Calm   3.0 mph 96% 0.00 in
10:15 48.1 °F 47.0 °F 29.92 in Calm   2.0 mph 96% 0.00 in
10:20 48.2 °F 47.1 °F 29.92 in NNE 1.0 mph 6.0 mph 96% 0.00 in
10:25 48.2 °F 47.1 °F 29.92 in Calm   6.0 mph 96% 0.00 in
10:30 48.2 °F 47.1 °F 29.92 in Calm   7.0 mph 96% 0.00 in
10:35 48.4 °F 47.3 °F 29.92 in Calm   7.0 mph 96% 0.00 in
10:40 48.5 °F 47.4 °F 29.92 in Calm   3.0 mph 96% 0.00 in
10:45 48.6 °F 47.5 °F 29.92 in Calm   3.0 mph 96% 0.00 in
10:50 48.8 °F 47.7 °F 29.92 in Calm   3.0 mph 96% 0.00 in
10:55 49.0 °F 47.9 °F 29.92 in Calm   3.0 mph 96% 0.00 in
11:00 49.1 °F 48.0 °F 29.92 in Calm   3.0 mph 96% 0.00 in
11:04 49.2 °F 48.1 °F 29.92 in Calm   4.0 mph 96% 0.00 in
11:10 49.5 °F 48.4 °F 29.92 in NNE 3.0 mph 7.0 mph 96% 0.00 in
11:15 49.8 °F 48.7 °F 29.92 in Calm   7.0 mph 96% 0.00 in
11:20 50.2 °F 49.1 °F 29.92 in NE 1.0 mph 7.0 mph 96% 0.00 in
11:25 50.5 °F 49.4 °F 29.91 in Calm   7.0 mph 96% 0.00 in
11:30 51.0 °F 49.9 °F 29.91 in Calm   3.0 mph 96% 0.00 in
11:35 51.4 °F 50.3 °F 29.91 in Calm   3.0 mph 96% 0.00 in
11:40 51.7 °F 50.6 °F 29.91 in Calm   3.0 mph 96% 0.00 in
11:45 51.8 °F 50.7 °F 29.91 in Calm   2.0 mph 96% 0.00 in
11:50 52.0 °F 50.9 °F 29.91 in Calm   1.0 mph 96% 0.00 in
11:55 51.7 °F 50.6 °F 29.91 in Calm   3.0 mph 96% 0.00 in
12:00 51.5 °F 50.4 °F 29.91 in Calm   3.0 mph 96% 0.00 in
12:05 51.4 °F 50.3 °F 29.91 in Calm   2.0 mph 96% 0.00 in
12:10 51.2 °F 50.1 °F 29.91 in Calm   4.0 mph 96% 0.01 in
12:15 51.2 °F 50.1 °F 29.92 in Calm   4.0 mph 96% 0.01 in
12:20 51.3 °F 50.2 °F 29.91 in Calm   3.0 mph 96% 0.01 in
12:25 51.6 °F 50.5 °F 29.91 in Calm   3.0 mph 96% 0.02 in
12:30 51.7 °F 50.6 °F 29.91 in Calm   5.0 mph 96% 0.02 in
12:35 51.6 °F 50.5 °F 29.90 in NNE 1.0 mph 5.0 mph 96% 0.03 in
12:40 51.7 °F 50.6 °F 29.90 in Calm   5.0 mph 96% 0.03 in
12:45 51.9 °F 50.8 °F 29.90 in Calm   5.0 mph 96% 0.03 in
12:50 51.6 °F 50.5 °F 29.90 in NW 3.0 mph 5.0 mph 96% 0.03 in
12:55 51.8 °F 50.7 °F 29.90 in Calm   5.0 mph 96% 0.04 in
13:00 52.2 °F 51.1 °F 29.89 in NW 2.0 mph 5.0 mph 96% 0.04 in
13:05 51.8 °F 50.7 °F 29.90 in WNW 4.0 mph 7.0 mph 96% 0.04 in
13:10 51.6 °F 50.5 °F 29.89 in WNW 1.0 mph 7.0 mph 96% 0.04 in
13:15 51.9 °F 50.8 °F 29.90 in WNW 1.0 mph 6.0 mph 96% 0.04 in
13:20 52.0 °F 50.9 °F 29.89 in Calm   5.0 mph 96% 0.04 in
13:25 52.4 °F 51.3 °F 29.89 in NW 1.0 mph 6.0 mph 96% 0.04 in
13:30 52.2 °F 51.1 °F 29.89 in NW 2.0 mph 6.0 mph 96% 0.04 in
13:35 52.0 °F 50.9 °F 29.89 in NW 2.0 mph 6.0 mph 96% 0.04 in
13:40 51.9 °F 50.8 °F 29.89 in Calm   6.0 mph 96% 0.04 in
13:45 52.1 °F 51.0 °F 29.89 in NW 1.0 mph 4.0 mph 96% 0.04 in
13:50 51.8 °F 50.7 °F 29.89 in NW 1.0 mph 4.0 mph 96% 0.04 in
13:55 51.5 °F 50.4 °F 29.89 in Calm   5.0 mph 96% 0.04 in
14:00 51.4 °F 50.3 °F 29.89 in Calm   5.0 mph 96% 0.04 in
14:05 51.2 °F 50.1 °F 29.89 in NW 1.0 mph 5.0 mph 96% 0.04 in
14:10 51.1 °F 50.0 °F 29.89 in NW 1.0 mph 5.0 mph 96% 0.04 in
14:15 51.1 °F 50.0 °F 29.89 in Calm   5.0 mph 96% 0.04 in
14:20 51.1 °F 50.0 °F 29.89 in NW 1.0 mph 5.0 mph 96% 0.04 in
14:25 51.1 °F 50.0 °F 29.90 in Calm   4.0 mph 96% 0.04 in
14:30 51.1 °F 50.0 °F 29.90 in NW 1.0 mph 3.0 mph 96% 0.04 in
14:35 51.2 °F 50.1 °F 29.89 in WNW 2.0 mph 5.0 mph 96% 0.05 in
14:45 51.5 °F 50.4 °F 29.88 in NW 1.0 mph 7.0 mph 96% 0.05 in
14:50 51.6 °F 50.5 °F 29.90 in NW 1.0 mph 7.0 mph 96% 0.05 in
14:55 51.4 °F 50.3 °F 29.90 in Calm   5.0 mph 96% 0.06 in
15:00 51.3 °F 50.2 °F 29.90 in Calm   3.0 mph 96% 0.06 in
15:05 51.3 °F 50.2 °F 29.90 in Calm   2.0 mph 96% 0.06 in
15:10 51.5 °F 50.4 °F 29.89 in NW 1.0 mph 3.0 mph 96% 0.07 in
15:15 51.4 °F 50.3 °F 29.89 in WNW 1.0 mph 6.0 mph 96% 0.07 in
15:20 51.4 °F 50.3 °F 29.89 in West 4.0 mph 8.0 mph 96% 0.07 in
15:25 51.4 °F 50.3 °F 29.89 in Calm   8.0 mph 96% 0.07 in
15:30 51.4 °F 50.3 °F 29.90 in Calm   5.0 mph 96% 0.07 in
15:35 51.4 °F 50.3 °F 29.90 in Calm   1.0 mph 96% 0.07 in
15:40 51.4 °F 50.3 °F 29.90 in Calm   1.0 mph 96% 0.07 in
15:45 51.3 °F 50.2 °F 29.89 in Calm   2.0 mph 96% 0.07 in
15:50 51.4 °F 50.3 °F 29.89 in Calm   2.0 mph 96% 0.07 in
15:55 51.7 °F 50.6 °F 29.89 in Calm   1.0 mph 96% 0.07 in
16:00 52.1 °F 51.0 °F 29.88 in Calm   3.0 mph 96% 0.07 in
16:05 52.3 °F 51.2 °F 29.88 in NNW 1.0 mph 4.0 mph 96% 0.07 in
16:10 52.2 °F 51.1 °F 29.87 in Calm   4.0 mph 96% 0.07 in
16:15 52.3 °F 51.2 °F 29.87 in Calm   4.0 mph 96% 0.07 in
16:20 52.3 °F 51.2 °F 29.88 in Calm   4.0 mph 96% 0.07 in
16:25 52.4 °F 51.3 °F 29.88 in Calm   4.0 mph 96% 0.07 in
16:30 52.5 °F 51.4 °F 29.88 in Calm   4.0 mph 96% 0.07 in
16:35 52.5 °F 51.4 °F 29.88 in Calm   1.0 mph 96% 0.07 in
16:40 52.4 °F 51.3 °F 29.88 in Calm   1.0 mph 96% 0.07 in
16:45 52.2 °F 51.1 °F 29.88 in NNW 1.0 mph 5.0 mph 96% 0.07 in
16:50 52.0 °F 50.9 °F 29.88 in Calm   5.0 mph 96% 0.07 in
16:55 51.9 °F 50.8 °F 29.88 in Calm     96% 0.07 in
17:00 52.0 °F 50.9 °F 29.89 in Calm   1.0 mph 96% 0.07 in
17:05 52.0 °F 50.9 °F 29.89 in Calm   2.0 mph 96% 0.07 in
17:10 51.9 °F 50.8 °F 29.88 in Calm   2.0 mph 96% 0.07 in
17:15 51.8 °F 50.7 °F 29.87 in Calm   2.0 mph 96% 0.07 in
17:20 51.6 °F 50.5 °F 29.87 in NNW 2.0 mph 4.0 mph 96% 0.07 in
17:25 51.1 °F 50.0 °F 29.89 in Calm   4.0 mph 96% 0.07 in
17:30 50.8 °F 49.7 °F 29.89 in Calm   3.0 mph 96% 0.08 in
17:35 50.6 °F 49.5 °F 29.89 in Calm   1.0 mph 96% 0.08 in
17:45 50.5 °F 49.4 °F 29.89 in Calm   3.0 mph 96% 0.08 in
17:50 50.2 °F 49.1 °F 29.88 in NNW 3.0 mph 5.0 mph 96% 0.08 in
17:55 50.0 °F 48.9 °F 29.89 in Calm   5.0 mph 96% 0.09 in
18:00 49.9 °F 48.8 °F 29.90 in Calm   4.0 mph 96% 0.09 in
18:05 49.7 °F 48.6 °F 29.89 in NNW 2.0 mph 4.0 mph 96% 0.09 in
18:10 49.6 °F 48.5 °F 29.89 in NW 1.0 mph 9.0 mph 96% 0.09 in
18:15 49.5 °F 48.4 °F 29.91 in Calm   9.0 mph 96% 0.11 in
18:20 49.5 °F 48.4 °F 29.91 in Calm   3.0 mph 96% 0.12 in
18:25 49.4 °F 48.3 °F 29.89 in NW 1.0 mph 5.0 mph 96% 0.16 in
18:30 49.4 °F 48.3 °F 29.89 in Calm   5.0 mph 96% 0.17 in
18:35 49.4 °F 48.3 °F 29.90 in Calm   1.0 mph 96% 0.19 in
18:40 49.4 °F 48.3 °F 29.91 in Calm   1.0 mph 96% 0.19 in
18:45 49.4 °F 48.3 °F 29.91 in Calm   2.0 mph 96% 0.19 in
18:50 49.4 °F 48.3 °F 29.91 in Calm   2.0 mph 96% 0.19 in
18:55 49.4 °F 48.3 °F 29.91 in Calm   1.0 mph 96% 0.20 in
19:00 49.3 °F 48.2 °F 29.91 in Calm   1.0 mph 96% 0.21 in
19:05 49.3 °F 48.2 °F 29.91 in Calm   1.0 mph 96% 0.23 in
19:10 49.3 °F 48.2 °F 29.91 in NW 1.0 mph 3.0 mph 96% 0.23 in
19:15 49.2 °F 48.1 °F 29.91 in Calm   3.0 mph 96% 0.24 in
19:20 49.2 °F 48.1 °F 29.91 in Calm   2.0 mph 96% 0.25 in
19:25 49.2 °F 48.1 °F 29.91 in NW 2.0 mph 5.0 mph 96% 0.25 in
19:30 49.2 °F 48.1 °F 29.91 in Calm   5.0 mph 96% 0.25 in
19:35 49.1 °F 48.0 °F 29.91 in Calm   4.0 mph 96% 0.26 in
19:40 49.0 °F 47.9 °F 29.92 in Calm   4.0 mph 96% 0.26 in
19:45 48.9 °F 47.8 °F 29.92 in Calm   4.0 mph 96% 0.26 in
19:50 48.9 °F 47.8 °F 29.92 in Calm   2.0 mph 96% 0.26 in
19:55 48.9 °F 47.8 °F 29.92 in Calm   2.0 mph 96% 0.26 in
20:00 48.8 °F 47.7 °F 29.92 in Calm   2.0 mph 96% 0.26 in
20:05 48.8 °F 47.7 °F 29.92 in Calm   2.0 mph 96% 0.26 in
20:10 48.8 °F 47.7 °F 29.92 in Calm   2.0 mph 96% 0.26 in
20:15 48.7 °F 47.6 °F 29.92 in Calm   4.0 mph 96% 0.26 in
20:20 48.6 °F 47.5 °F 29.91 in Calm   4.0 mph 96% 0.26 in
20:25 48.6 °F 47.5 °F 29.91 in Calm     96% 0.26 in
20:30 48.7 °F 47.6 °F 29.91 in Calm     96% 0.26 in
20:35 48.7 °F 47.6 °F 29.92 in Calm   1.0 mph 96% 0.26 in
20:40 48.7 °F 47.6 °F 29.92 in Calm   1.0 mph 96% 0.26 in
20:45 48.7 °F 47.6 °F 29.92 in Calm     96% 0.26 in
20:50 48.8 °F 47.7 °F 29.92 in Calm     96% 0.26 in
20:55 48.8 °F 47.7 °F 29.91 in Calm     96% 0.26 in
21:00 48.8 °F 47.7 °F 29.91 in Calm   2.0 mph 96% 0.26 in
21:05 48.8 °F 47.7 °F 29.91 in Calm   2.0 mph 96% 0.26 in
21:10 48.9 °F 47.8 °F 29.91 in Calm   1.0 mph 96% 0.26 in
21:15 48.9 °F 47.8 °F 29.92 in Calm     96% 0.26 in
21:20 48.9 °F 47.8 °F 29.91 in Calm     96% 0.26 in
21:25 48.9 °F 47.8 °F 29.91 in Calm   1.0 mph 96% 0.26 in
21:30 48.8 °F 47.7 °F 29.91 in Calm   1.0 mph 96% 0.26 in
21:35 48.8 °F 47.7 °F 29.91 in Calm     96% 0.26 in
21:40 48.7 °F 47.6 °F 29.91 in Calm   2.0 mph 96% 0.26 in
21:45 48.7 °F 47.6 °F 29.91 in Calm   2.0 mph 96% 0.26 in
21:50 48.6 °F 47.5 °F 29.91 in Calm   1.0 mph 96% 0.26 in
21:55 48.5 °F 47.4 °F 29.91 in Calm   1.0 mph 96% 0.26 in
22:00 48.4 °F 47.3 °F 29.91 in Calm   3.0 mph 96% 0.26 in
22:05 48.3 °F 47.2 °F 29.91 in Calm   3.0 mph 96% 0.26 in
22:10 48.3 °F 47.2 °F 29.91 in Calm   3.0 mph 96% 0.26 in
22:15 48.2 °F 47.1 °F 29.92 in Calm     96% 0.26 in
22:20 48.2 °F 47.1 °F 29.91 in Calm   1.0 mph 96% 0.26 in
22:25 48.2 °F 47.1 °F 29.91 in Calm   1.0 mph 96% 0.26 in
22:30 48.2 °F 47.1 °F 29.91 in Calm     96% 0.26 in
22:35 48.2 °F 47.1 °F 29.91 in Calm     96% 0.26 in
22:40 48.2 °F 47.1 °F 29.90 in Calm     96% 0.26 in
22:45 48.3 °F 47.2 °F 29.90 in Calm     96% 0.26 in
22:50 48.3 °F 47.2 °F 29.90 in Calm     96% 0.26 in
22:55 48.3 °F 47.2 °F 29.90 in Calm     96% 0.26 in
23:00 48.3 °F 47.2 °F 29.90 in Calm     96% 0.26 in
23:05 48.3 °F 47.2 °F 29.90 in Calm     96% 0.26 in
23:10 48.4 °F 47.3 °F 29.91 in Calm     96% 0.26 in
23:15 48.4 °F 47.3 °F 29.91 in Calm     96% 0.26 in
23:20 48.5 °F 47.4 °F 29.91 in Calm     96% 0.26 in
23:25 48.5 °F 47.4 °F 29.92 in Calm     96% 0.26 in
23:30 48.5 °F 47.4 °F 29.92 in Calm     96% 0.26 in
23:35 48.5 °F 47.4 °F 29.92 in Calm     96% 0.26 in
23:40 48.4 °F 47.3 °F 29.92 in Calm   1.0 mph 96% 0.27 in
23:45 48.4 °F 47.3 °F 29.92 in Calm   1.0 mph 96% 0.27 in
23:50 48.3 °F 47.2 °F 29.92 in Calm   1.0 mph 96% 0.27 in
23:55 48.3 °F 47.2 °F 29.91 in Calm   1.0 mph 96% 0.27 in
Westford Weather
Compliments of Weather Underground

 
 
Current Radar Loop:

Copyright © WestfordWeather.net 2007-2014. All rights reserved.